Lid_Strength_Index
1 1 1 1 1 0 0 0 0 0 0 0 0 0 -0 -0 -0 1 5 2 2 -2 0 3 3 3 3 4 4 4 8 9 8 8 8 6 7 5 4 5 4 4 4 3 2
1 1 1 1 1 1 0 0 0 0 0 0 0 0 0 0 2 4 1 -1 -3 -1 3 4 5 4 5 5 4 6 8 8 6 7 8 7 7 7 7 6 5 5 3 3 3
1 1 1 1 1 0 0 0 -0 -0 0 0 0 0 0 0 4 5 -1 -2 -2 -0 3 3 4 5 6 5 5 6 8 7 7 6 7 8 8 7 8 8 6 6 5 4 3
2 1 1 1 1 0 -0 -0 -0 -0 -0 0 0 0 0 1 9 4 -2 -2 -2 2 3 4 5 6 7 7 6 8 7 7 7 7 7 8 7 8 7 7 5 5 5 4 4
1 1 1 1 1 0 -0 -0 -0 -0 -0 0 0 0 2 6 6 -0 -2 -1 2 3 4 5 6 6 8 7 7 8 8 7 7 7 7 7 8 8 8 6 5 5 5 5 5
1 1 1 1 1 0 -0 -0 -0 -0 0 0 0 1 4 8 3 -0 -1 1 3 4 5 5 6 5 7 7 8 7 8 8 8 8 8 9 8 8 7 6 6 6 6 6 5
1 2 2 1 0 0 -0 -0 -0 0 0 0 0 1 6 5 2 1 1 3 3 4 5 4 5 6 6 8 7 8 10 8 8 8 8 8 10 9 7 6 7 7 6 6 5
2 2 2 2 1 1 1 0 1 1 1 1 0 3 7 5 3 3 4 4 4 4 5 5 5 6 8 7 9 10 10 12 9 9 9 9 12 8 7 7 7 6 6 5 5
2 2 2 1 1 1 1 1 2 1 1 1 3 5 8 5 6 5 5 6 5 5 6 6 6 8 8 10 11 10 13 12 10 8 10 10 11 8 7 8 8 7 6 6 6
2 2 2 1 1 1 1 3 1 2 1 2 4 8 7 8 6 6 6 6 7 7 7 7 8 10 10 11 14 12 11 11 11 9 9 10 10 9 8 8 8 7 7 6 6
2 1 2 2 1 1 2 3 5 6 6 6 6 7 5 6 6 7 6 7 6 7 10 9 11 12 10 9 10 10 12 12 10 9 10 11 11 10 8 8 8 8 7 7 7
3 3 2 2 2 2 3 4 5 6 7 3 5 6 6 6 7 7 6 8 9 11 10 12 13 10 9 9 11 11 12 12 10 9 10 11 12 10 9 8 8 8 8 7 7
3 3 3 3 2 2 5 6 5 5 7 6 6 7 7 7 7 6 7 8 10 11 12 12 10 9 11 11 12 11 12 12 12 11 11 12 13 10 9 7 7 8 8 8 8
3 3 3 2 3 3 5 6 5 6 10 9 10 9 9 9 10 9 8 9 11 11 11 11 11 12 12 13 12 14 11 12 13 14 15 11 17 11 9 9 9 9 9 9 9
2 3 2 2 3 4 5 5 5 7 17 11 11 7 9 11 10 11 9 10 11 11 11 12 12 13 13 12 11 13 12 12 13 14 14 13 14 12 9 11 11 10 9 9 10
3 3 2 3 4 4 5 7 7 12 19 11 11 11 11 11 11 10 10 9 9 11 11 11 11 11 11 11 11 11 12 12 11 13 16 12 13 13 11 11 11 10 11 10 10
4 4 3 2 4 5 5 5 13 17 9 11 12 11 11 11 11 11 11 12 12 13 12 11 11 10 10 12 11 12 12 15 17 17 17 12 13 12 9 9 10 11 11 10 10
5 4 4 2 3 4 4 9 17 12 11 8 10 11 11 10 10 11 10 11 9 10 11 13 15 10 10 10 10 11 11 16 21 19 16 12 16 12 8 10 10 10 10 10 10
5 4 5 3 3 3 6 14 15 12 9 10 9 11 11 9 10 10 10 10 9 9 12 13 13 10 10 9 10 11 13 10 14 14 17 14 12 9 8 10 10 10 10 10 10
5 5 6 3 3 4 9 13 11 8 8 9 12 10 13 11 11 11 10 9 10 9 8 10 14 10 9 10 9 11 10 14 13 20 20 15 14 13 11 11 10 10 11 11 11
6 9 6 3 3 8 14 12 10 8 7 10 10 11 10 11 10 11 11 9 8 8 8 9 11 11 9 11 11 11 12 12 11 15 19 19 15 9 10 10 11 11 10 11 11
7 12 5 2 9 9 12 11 10 10 7 8 8 9 10 10 10 10 11 8 6 7 11 9 12 16 12 8 7 8 11 11 16 16 15 16 16 7 7 10 11 11 11 11 11
9 9 5 4 12 11 8 8 7 9 8 8 9 8 7 10 12 9 9 7 7 8 10 9 12 17 14 10 10 12 11 11 12 13 17 19 16 8 9 10 10 11 11 11 12
7 10 7 6 6 8 9 9 10 7 7 7 8 7 9 10 9 10 10 8 7 7 8 8 12 15 17 13 11 14 12 11 13 17 16 16 14 10 9 10 11 12 13 13 12
8 10 8 11 9 8 8 9 10 10 7 7 9 9 9 11 10 10 9 9 8 9 8 9 14 12 12 11 11 12 12 12 12 12 16 13 12 10 9 10 11 11 11 12 12
10 10 9 8 7 8 9 10 11 10 9 10 10 8 10 11 10 12 10 10 11 10 10 10 13 11 15 12 12 13 12 12 11 11 12 11 12 8 9 9 10 11 11 11 11
8 8 8 10 10 10 10 10 10 8 11 9 10 10 11 10 9 9 9 9 9 11 11 12 13 14 17 13 14 17 15 13 12 11 11 13 12 11 11 12 12 12 11 11 10